[Iaude] MPEC L50: 2024 LU [a=2.04,e=0.49,i=8.5,H=23.7]

mpec at cfa.harvard.edu mpec at cfa.harvard.edu
Tue Jun 4 22:05:24 EDT 2024


M.P.E.C. 2024-L50                                  Issued 2024 June 5, 02:03 UT

     The Minor Planet Electronic Circulars contain information on unusual
         minor planets, routine data on comets and natural satellites,
         and occasional editorial announcements.  They are published
    on behalf of Division F of the International Astronomical Union by the
          Minor Planet Center, Smithsonian Astrophysical Observatory,
                          Cambridge, MA 02138, U.S.A.
			  
             Prepared using the Tamkin Foundation Computer Network

                              MPC at CFA.HARVARD.EDU
            URL https://www.minorplanetcenter.net/    ISSN 1523-6714

                                    2024 LU                                     


Observations:
     K24L00U* C2024 06 03.53365320 33 24.563-05 49 04.55         20.44wXEL050F52
     K24L00U  C2024 06 03.54366420 33 30.314-05 47 14.17         19.66wXEL050F52
     K24L00U  C2024 06 03.56355020 33 41.737-05 43 34.26         19.53wXEL050F52
     K24L00U  C2024 06 03.60389120 34 04.767-05 36 09.09         18.99GVEL050F51
     K24L00U  C2024 06 03.60453520 34 05.139-05 36 01.83         19.13GVEL050F51
     K24L00U KC2024 06 03.62383920 34 20.273-05 30 05.44         19.5 GVEL050474
     K24L00U KC2024 06 03.62508120 34 21.007-05 29 51.97         20.1 GVEL050474
     K24L00U KC2024 06 03.62632420 34 21.734-05 29 38.44         20.0 GVEL050474
     K24L00U KB2024 06 03.98083 20 38 02.04 -04 28 16.7          18.5 GXEL050G15
     K24L00U KB2024 06 03.98767 20 38 06.08 -04 27 03.7          19.3 GXEL050G15
     K24L00U 1C2024 06 04.02293 20 38 25.71 -04 20 53.4          20.0 VXEL050033
     K24L00U 1C2024 06 04.02333 20 38 25.96 -04 20 49.6          19.8 VXEL050033
     K24L00U 1C2024 06 04.02374 20 38 26.19 -04 20 45.4          20.5 VXEL050033
     K24L00U 1C2024 06 04.02413 20 38 26.41 -04 20 41.0          20.2 VXEL050033
     K24L00U KB2024 06 04.03801 20 38 34.92 -04 18 04.4                VEL050204
     K24L00U KB2024 06 04.05174020 38 43.61 -04 15 34.9          20.4 GXEL050I93
     K24L00U KB2024 06 04.05536520 38 45.73 -04 14 55.9          19.9 GXEL050I93
     K24L00U KB2024 06 04.05966820 38 48.14 -04 14 09.5          19.8 GXEL050I93
     K24L00U KB2024 06 04.06266 20 38 48.93 -04 13 40.5          20.4 GVEL050204
     K24L00U KC2024 06 04.32081720 41 23.24 -03 27 42.2          19.8 GVEL050H21
     K24L00U KC2024 06 04.32258820 41 24.26 -03 27 23.5          20.8 GVEL050H21
     K24L00U KC2024 06 04.32510320 41 25.64 -03 26 57.3          20.1 GVEL050H21
     K24L00U KC2024 06 04.32836520 41 27.46 -03 26 22.5          20.1 GVEL050H21
     K24L00U KC2024 06 04.61758420 44 15.353-02 33 06.26         19.1 GVEL050474
     K24L00U KC2024 06 04.61882920 44 16.039-02 32 53.45         19.2 GVEL050474
     K24L00U KC2024 06 04.62007220 44 16.709-02 32 40.52         19.2 GVEL050474
     K24L00U KC2024 06 04.62131520 44 17.374-02 32 27.78         19.2 GVEL050474
     K24L00U 1C2024 06 05.02305 20 48 05.70 -01 27 17.3          19.8 VXEL050033
     K24L00U 1C2024 06 05.02357 20 48 05.96 -01 27 12.1          19.9 VXEL050033
     K24L00U 1C2024 06 05.02409 20 48 06.25 -01 27 07.4          19.9 VXEL050033
     K24L00U 1C2024 06 05.02460 20 48 06.52 -01 27 01.7          20.0 VXEL050033
     K24L00U KC2024 06 05.03843320 48 14.755-01 24 42.91         20.0 GVEL050J95
     K24L00U KC2024 06 05.04638020 48 19.010-01 23 23.06         20.0 GVEL050J95

Observer details:
033 Karl Schwarzschild Observatory, Tautenburg.  Observers C. Heogner, F.
    Ludwig, M. Hartmann, B. Stecklum.  Measurer B. Stecklum.  1.34-m f/3
    Schmidt + CCD.
204 Schiaparelli Observatory.  Observer L. Buzzi.  0.84-m f/3.5 reflector +
    CMO.
474 Mount John Observatory, Lake Tekapo.  Observers A. C. Gilmore, P. M.
    Kilmartin.  Measurer P. M. Kilmartin.  1.0-m f/7.7 Reflector + CCD.
F51 Pan-STARRS 1, Haleakala.  Observers J. Herman, T. Lowe, P. Minguez, A.
    Schultz, I. Smith.  Measurers K. Chambers, T. de Boer, J. Fairlamb, H.
    Gao, M. Huber, C.-C. Lin, E. Magnier, Y. Ramanjooloo, R. Wainscoat, R.
    Weryk.  1.8-m Ritchey-Chretien + CCD.
F52 Pan-STARRS 2, Haleakala.  Observers J. Herman, T. Lowe, P. Minguez, A.
    Schultz, I. Smith.  Measurers K. Chambers, T. de Boer, J. Fairlamb, H.
    Gao, M. Huber, C.-C. Lin, E. Magnier, Y. Ramanjooloo, R. Wainscoat, R.
    Weryk.  1.8-m Ritchey-Chretien + CCD.
G15 Magroforte Observatory, Alessandria.  Observer A. De Pieri.  0.23-m f/6.7
    SC + CMO.
H21 Astronomical Research Observatory, Westfield.  Observer R. Holmes.
    Measurers T. Linder, R. Holmes, L. Horn.  0.76-m f/3.0 astrograph + CCD.
I93 St Pardon de Conques.  Observer F. Losse.  0.40-m f/3.7 reflector + CMO.
J95 Great Shefford.  Observer P. Birtwhistle.  0.41-m f/6.3 Schmidt-Cassegrain
    + CCD.

Orbital elements:
2024 LU                                                  Earth MOID = 0.0389 AU
Epoch 2024 Mar. 31.0 TT = JDT 2460400.5                 Veres                   
M 335.08517              (2000.0)            P               Q                  
n   0.33832306     Peri.   15.45420     -0.06854959     +0.98789154             
a   2.0397721      Node   250.77294     -0.93023813     -0.11370381             
e   0.4872758      Incl.    8.47644     -0.36049684     +0.10555448             
P   2.91           H   23.72          G   0.15           U   7                  
Residuals in seconds of arc
240603 F52  0.1+  0.2+    240604 033  0.4+  0.3+    240604 H21  0.4+  0.0
240603 F52  0.1-  0.1-    240604 033  0.3+  0.1+    240604 474  0.2-  0.1+
240603 F52  0.1+  0.1+    240604 033  0.2+  0.3+    240604 474  0.1+  0.0
240603 F51  0.0   0.3-    240604 204  0.2-  0.5+    240604 474  0.0   0.1+
240603 F51  0.1+  0.1-    240604 I93  0.4-  0.2+    240604 474  0.0   0.0
240603 474  0.1-  0.2+    240604 I93  0.4+  0.3+    240605 033  0.1-  0.0
240603 474  0.0   0.0     240604 I93  0.2-  0.7+    240605 033  0.3-  0.0
240603 474  0.0   0.2-    240604 204  0.1-  0.1+    240605 033  0.1-  0.6-
240603 G15  0.5-  0.4+    240604 H21  0.5-  0.1-    240605 033  0.1-  0.0
240603 G15  0.5+  0.1-    240604 H21  0.2+  0.1-    240605 J95  0.2-  0.2+
240604 033  0.1+  0.8+    240604 H21  0.1+  0.4-    240605 J95  0.2+  0.2+

Ephemeris:
2024 LU                  a,e,i = 2.04, 0.49, 8                   q = 1.0458
Date    TT    R. A. (2000) Decl.     Delta      r    Elong.  Phase     V
2024 05 06    14 39 32.5 -46 42 18   0.1412  1.1329   149.7    26.7    20.9
...
2024 05 21    17 10 26.0 -43 25 20   0.07518 1.0787   151.5    26.6    19.5
...
2024 05 29    19 22 36.5 -24 21 23   0.06032 1.0598   139.0    38.9    19.3
...
2024 06 04    20 38 08.0 -04 23 22   0.06598 1.0507   121.7    55.2    19.9
2024 06 05    20 47 49.0 -01 29 36   0.06816 1.0496   119.3    57.5    20.1
2024 06 06    20 56 45.9 +01 12 21   0.07061 1.0487   117.0    59.6    20.2
...
2024 06 12    21 37 48.3 +13 27 14   0.08938 1.0458   107.5    67.9    21.0
...
2024 06 20    22 10 17.0 +22 25 03   0.1197  1.0493   102.8    70.8    21.7
...
2024 07 05    22 38 26.1 +29 35 48   0.1783  1.0777   105.3    65.5    22.5

M. P. C. Staff               (C) Copyright 2024 MPC           M.P.E.C. 2024-L50





More information about the Iaude mailing list